Provincetown, Massachusetts, United States (02657)
Lat: 42.06N, Lon: 70.18W
Wx Zone: MAZ022
Local Info
Past Weather Observations for Today

NOTE: This archive is for the closest National Weather Service station to Provincetown. Information may differ from the station used for current weather conditions.

Click here for Long-term Archive

Time Weather Temperature Dewpoint Humidity Pressure Winds Precip Visibility
19:56
Partly Cloudy
66°F / 19°C 61°F / 16°C 83% 30.06 in
(1018 mb)
NE 6.9 mph
(NE 11 kph)
- 10SM
18:56
Overcast
66°F / 19°C 61°F / 16°C 83% 30.06 in
(1018 mb)
NE 5.8 mph
(NE 9 kph)
- 10SM
17:56
Overcast
70°F / 21°C 61°F / 16°C 73% 30.06 in
(1018 mb)
NE 8.1 mph
(NE 13 kph)
- 10SM
16:56
Overcast
72°F / 22°C 61°F / 16°C 69% 30.06 in
(1018 mb)
ENE 8.1 mph
(ENE 13 kph)
- 10SM
15:56
Overcast
72°F / 22°C 59°F / 15°C 65% 30.04 in
(1017 mb)
ENE 6.9 mph
(ENE 11 kph)
- 10SM
14:56
Overcast
72°F / 22°C 57°F / 14°C 61% 30.06 in
(1018 mb)
ENE 8.1 mph
(ENE 13 kph)
- 10SM
13:56
Mostly Cloudy
72°F / 22°C 59°F / 15°C 65% 30.06 in
(1018 mb)
NE 6.9 mph
(NE 11 kph)
- 10SM
12:56
Overcast
72°F / 22°C 61°F / 16°C 69% 30.06 in
(1018 mb)
ENE 6.9 mph
(ENE 11 kph)
- 8SM
11:56
Overcast
72°F / 22°C 61°F / 16°C 69% 30.06 in
(1018 mb)
ENE 8.1 mph
(ENE 13 kph)
- 10SM
10:56
Overcast
70°F / 21°C 59°F / 15°C 69% 30.06 in
(1018 mb)
E 6.9 mph
(E 11 kph)
- 10SM
09:56
Partly Cloudy
70°F / 21°C 63°F / 17°C 78% 30.06 in
(1018 mb)
E 8.1 mph
(E 13 kph)
- 10SM
08:56
Partly Cloudy
70°F / 21°C 64°F / 18°C 83% 30.06 in
(1018 mb)
ENE 6.9 mph
(ENE 11 kph)
0.01 in
(0.25 mm)
10SM
07:56
Overcast
Rain
66°F / 19°C 64°F / 18°C 94% 30.06 in
(1018 mb)
NE 5.8 mph
(NE 9 kph)
0.06 in
(1.52 mm)
5SM
06:56
Overcast
66°F / 19°C 64°F / 18°C 94% 30.06 in
(1018 mb)
NNE 6.9 mph
(NNE 11 kph)
- 10SM
05:56
Partly Cloudy
66°F / 19°C 63°F / 17°C 88% 30.06 in
(1018 mb)
NNE 3.5 mph
(NNE 6 kph)
- 10SM
04:56
Partly Cloudy
64°F / 18°C 61°F / 16°C 88% 30.06 in
(1018 mb)
NW 3.5 mph
(NW 6 kph)
- 10SM
03:56
Partly Cloudy
63°F / 17°C 61°F / 16°C 94% 30.04 in
(1017 mb)
Calm - 10SM
02:56
Mostly Cloudy
63°F / 17°C 61°F / 16°C 94% 30.04 in
(1017 mb)
Calm - 10SM
01:56
Overcast
64°F / 18°C 61°F / 16°C 88% 30.04 in
(1017 mb)
NE 3.5 mph
(NE 6 kph)
- 10SM
01:34
Overcast
63°F / 17°C 61°F / 16°C 94% 30.04 in
(1017 mb)
NE 3.5 mph
(NE 6 kph)
- 10SM
00:56
Overcast
63°F / 17°C 61°F / 16°C 94% 30.04 in
(1017 mb)
NE 4.6 mph
(NE 7 kph)
- 10SM
00:34
Mostly Cloudy
63°F / 17°C 59°F / 15°C 88% 30.06 in
(1018 mb)
Calm - 10SM
Time Weather Temperature Dewpoint Humidity Pressure Winds Precip Visibility


Weather for websites

WeatherForYou.com, LLC is not responsible for any damages or problems caused by this service. Current weather conditions are obtained from the closest station including government and personal stations which may have varying degrees of accuracy. Weather forecasts are derived from the NOAA NDFD. Like all things, this site belongs to Jesus Christ... He just trusts me to maintain it. If you have any questions or comments email webmaster@weatherforyou.com

Copyright © 2014, WeatherForYou.com LLC. All rights reserved.